North Las Vegas, NV

11:22 AM PDT on March 24, 2017 (GMT -0700)
North Las Vegas

Weather History for KVGT - November, 2013

Change the Weather History Date:

Friday, November 15, 2013

  Actual Average Record
Temperature  
Mean Temperature 62 °F 57 °F  
Max Temperature 73 °F 67 °F 76 °F (2008)
Min Temperature 52 °F 46 °F 39 °F (2000)
Degree Days  
Heating Degree Days 2 8  
Month to date heating degree days 91  
Since 1 July heating degree days 135  
Cooling Degree Days 0 0  
Month to date cooling degree days 8  
Year to date cooling degree days 3292  
Growing Degree Days 12 (Base 50)    
Moisture  
Dew Point 23 °F    
Average Humidity 23    
Maximum Humidity 34    
Minimum Humidity 13    
Precipitation  
Precipitation 0.00 in 0.02 in 0.00 in (2017)
Month to date precipitation 0.19  
Year to date precipitation 4.56  
Sea Level Pressure  
Sea Level Pressure 29.63 in    
Wind  
Wind Speed 7 mph (NNW)    
Max Wind Speed 16 mph    
Max Gust Speed 23 mph    
Visibility 10 miles    
Events      
T = Trace of Precipitation, MM = Missing Value Source: NWS Daily Summary

Daily Weather History Graph

Daily Weather History Graph

Search for Another Location

Airport or City:

Trip Planner

Search our weather history database for the weather conditions in past years. The results will help you decide how hot, cold, wet, or windy it might be!

Date:

Astronomy

Nov. 15, 2013 Rise Set
Actual Time 6:18 AM PST 4:32 PM PST
Civil Twilight 5:50 AM PST 4:59 PM PST
Nautical Twilight 5:19 AM PST 5:30 PM PST
Astronomical Twilight 4:49 AM PST 6:01 PM PST
Moon 3:29 PM PST (11/15) 4:21 AM PST (11/15)
Length of Visible Light 11h 09m
Length of Day
10h 14m
Waxing Gibbous, 97% of the Moon is Illuminated
Nov 15
Waxing Gibbous
Nov 17
Full
Nov 25
Last Quarter
Dec 2
New
Dec 9
First Quarter

Hourly Weather History & Observations

Time (PST) Temp. Dew Point Humidity Pressure Visibility Wind Dir Wind Speed Gust Speed Precip Events Conditions
12:53 AM 59.0 °F 26.1 °F 28% 29.66 in 10.0 mi SW 4.6 mph - N/A   Clear
1:53 AM 57.0 °F 26.1 °F 30% 29.65 in 10.0 mi NNW 5.8 mph - N/A   Clear
2:53 AM 57.0 °F 26.1 °F 30% 29.64 in 10.0 mi North 6.9 mph - N/A   Clear
3:53 AM 55.9 °F 24.1 °F 29% 29.63 in 10.0 mi North 9.2 mph - N/A   Clear
4:53 AM 55.9 °F 24.1 °F 29% 29.65 in 10.0 mi North 9.2 mph - N/A   Clear
5:53 AM 55.0 °F 24.1 °F 30% 29.65 in 10.0 mi NW 5.8 mph - N/A   Clear
6:53 AM 52.0 °F 24.1 °F 34% 29.65 in 10.0 mi NW 5.8 mph - N/A   Clear
7:53 AM 57.0 °F 28.0 °F 33% 29.66 in 10.0 mi NW 3.5 mph - N/A   Clear
8:53 AM 63.0 °F 27.0 °F 26% 29.67 in 10.0 mi North 8.1 mph - N/A   Clear
9:53 AM 66.9 °F 25.0 °F 21% 29.66 in 10.0 mi North 8.1 mph - N/A   Clear
10:53 AM 68.0 °F 21.9 °F 17% 29.65 in 10.0 mi Calm Calm - N/A   Clear
11:53 AM 73.0 °F 21.9 °F 15% 29.61 in 10.0 mi Calm Calm - N/A   Clear
12:15 PM 73.4 °F 21.2 °F 14% 29.59 in 10.0 mi NNW 15.0 mph 23.0 mph N/A   Clear
12:53 PM 73.9 °F 19.9 °F 13% 29.58 in 10.0 mi NNW 16.1 mph - N/A   Clear
1:53 PM 73.0 °F 19.9 °F 14% 29.58 in 10.0 mi North 9.2 mph - N/A   Clear
2:53 PM 73.0 °F 19.0 °F 13% 29.58 in 10.0 mi NW 9.2 mph - N/A   Clear
3:53 PM 72.0 °F 19.0 °F 13% 29.58 in 10.0 mi North 6.9 mph - N/A   Clear
4:53 PM 68.0 °F 19.0 °F 15% 29.59 in 10.0 mi NNW 5.8 mph - N/A   Clear
5:53 PM 63.0 °F 19.9 °F 19% 29.61 in 10.0 mi WNW 5.8 mph - N/A   Clear
6:53 PM 62.1 °F 21.0 °F 21% 29.63 in 10.0 mi Calm Calm - N/A   Clear
7:53 PM 57.0 °F 23.0 °F 27% 29.64 in 10.0 mi North 8.1 mph - N/A   Clear
8:53 PM 60.1 °F 19.0 °F 20% 29.63 in 10.0 mi NNW 9.2 mph - N/A   Clear
9:53 PM 59.0 °F 21.0 °F 23% 29.63 in 10.0 mi NNW 15.0 mph - N/A   Clear
10:53 PM 57.0 °F 21.9 °F 26% 29.64 in 10.0 mi NNW 11.5 mph - N/A   Clear
11:53 PM 55.0 °F 21.9 °F 28% 29.66 in 10.0 mi North 10.4 mph - N/A   Clear